Location: Unspecified
(51.3762°N, 0.0000°E)
Time: 18:37:31
(UTC+00:00)

nSIGHT-1 - Pass Details

Date: 25 August 2019
Orbit: 341 x 348 km, 51.6° (Epoch: 22 September)

Event Time Altitude Azimuth Distance (km) Brightness Sun altitude
Exits shadow 03:42:05 23° 231° (SW) 796 ? -11.8°
Maximum altitude 03:43:39 55° 161° (SSE) 418 ? -11.6°
Drops below altitude 10° 03:46:29 10° 82° (E) 1,297 ? -11.2°
Sets 03:48:31 0° 78° (ENE) 2,141 ? -11.0°
